GFSGBSN_850_temp_015.txt.gz
Temp
9 9 8 9 9 9 10 10 11 11 11 11 12 12 12 13 14 15 16 16 17 18 18 18 19 18 19 19 22 25 25 25 25 24 23 22 22 22 22 23 25 24 25 27 28 29 28
7 7 7 7 7 7 7 8 8 9 10 11 12 12 12 13 14 15 16 17 18 18 18 18 19 18 18 16 25 25 25 24 24 24 24 24 24 24 24 23 24 26 26 27 28 29 28
6 6 6 6 6 6 7 7 7 8 8 9 11 12 12 13 14 15 16 18 18 19 19 19 18 18 17 22 25 24 25 24 24 25 24 24 25 25 25 23 26 27 26 26 27 29 27
5 5 6 6 7 7 7 7 7 8 8 9 10 11 12 13 13 14 16 18 18 19 20 20 19 17 17 23 24 24 25 25 24 24 24 25 25 25 24 25 25 26 25 25 27 28 29
5 6 6 7 7 7 7 7 7 8 8 10 11 12 12 13 13 14 17 17 18 19 19 19 18 17 18 21 23 25 25 25 26 25 24 24 23 23 24 22 21 21 23 24 25 27 27
6 6 6 6 7 7 7 7 7 7 8 9 10 11 12 12 13 15 16 18 17 17 16 16 14 14 21 23 23 23 25 25 25 25 22 22 23 19 18 19 20 22 23 24 24 27 26
6 6 6 7 7 7 7 7 8 8 8 9 10 11 11 13 13 14 16 16 16 15 14 16 17 18 21 22 23 24 25 25 24 24 20 23 20 18 20 20 23 24 24 24 24 27 27
6 6 7 7 7 7 7 7 7 7 8 9 10 11 12 13 13 14 14 13 11 9 9 17 20 18 22 21 20 24 23 23 22 20 21 20 20 21 22 21 22 23 23 23 24 25 25
7 8 8 8 7 7 7 7 8 8 8 9 9 10 11 13 13 14 14 13 13 12 10 16 18 18 18 20 18 23 23 25 22 20 20 21 21 22 23 23 22 22 22 24 24 25 26
8 8 8 7 7 7 7 7 7 7 7 7 9 10 10 12 13 14 13 14 14 14 11 16 18 19 19 20 17 23 24 25 23 22 21 20 23 23 23 23 22 20 23 25 25 24 23
7 7 6 6 6 5 5 5 6 6 6 6 8 10 10 10 10 12 12 14 15 15 15 22 20 21 20 21 23 20 24 24 22 22 21 21 22 23 22 24 22 23 25 24 25 24 24
6 6 5 5 5 5 5 5 5 5 5 6 7 8 9 10 10 12 12 14 15 14 14 20 22 20 20 21 23 22 22 24 25 23 22 23 24 24 23 24 24 25 25 24 22 21 20
6 5 5 5 5 5 4 4 4 5 5 5 7 8 10 9 9 10 11 13 12 12 18 19 17 17 18 20 22 23 22 22 21 21 21 22 24 24 24 23 23 23 20 19 20 20 22
5 5 5 5 5 5 4 4 4 4 4 4 6 8 10 9 8 11 11 9 11 16 15 16 16 16 19 17 20 20 22 22 23 22 21 20 21 23 23 23 23 20 21 16 19 19 22
5 5 5 4 4 4 3 3 3 4 4 4 5 9 9 7 7 8 8 8 11 13 15 14 15 15 14 15 16 16 16 23 23 20 21 19 20 24 25 24 24 22 22 23 21 19 19
4 4 4 3 3 3 3 3 3 3 4 4 4 7 7 7 7 8 5 6 9 13 13 14 13 13 12 13 14 14 15 19 19 20 21 20 20 21 24 25 24 24 22 23 16 21 21
4 3 3 3 3 3 3 3 3 3 3 4 4 5 8 7 7 7 4 5 10 12 14 13 12 12 13 13 15 14 15 17 17 16 17 20 19 23 23 22 22 21 23 21 19 19 22
3 3 3 3 3 2 3 3 3 2 3 3 3 0 7 7 4 3 3 4 10 11 11 12 13 13 12 12 12 14 15 16 14 14 13 14 15 21 22 22 25 24 24 19 21 20 19
3 3 3 3 3 3 3 3 2 2 2 2 2 2 6 6 2 3 4 7 8 8 9 10 10 10 10 11 12 11 11 13 13 13 12 12 12 17 20 21 22 22 23 23 22 19 24
3 2 2 2 2 2 2 2 2 2 2 2 1 1 4 5 4 3 3 5 6 7 9 9 9 10 9 10 9 9 11 13 12 13 13 11 10 14 17 19 20 21 23 24 23 22 24
3 2 2 2 3 3 3 3 2 2 2 2 2 1 1 1 2 1 3 4 5 5 6 8 8 8 8 7 8 9 10 9 11 12 10 9 9 13 14 16 18 20 22 25 22 24 24
3 3 3 2 2 3 3 3 3 2 2 1 2 2 2 1 2 1 2 4 5 5 4 5 7 7 8 7 8 7 7 8 8 9 9 7 10 10 13 17 19 20 23 24 25 25 24
3 3 3 3 2 2 2 3 3 2 2 1 1 2 1 2 3 2 2 3 4 5 5 5 7 6 6 7 7 7 7 8 9 9 8 9 8 9 11 14 15 19 23 24 26 24 25
3 3 3 3 2 2 2 3 3 2 2 1 2 1 1 2 3 3 4 4 4 4 4 5 6 5 7 7 8 9 7 7 8 7 8 8 8 9 10 12 17 21 22 25 25 24 23
3 2 2 2 3 3 3 2 2 2 2 2 2 1 2 2 3 3 4 4 3 3 3 4 5 6 6 6 5 6 6 7 8 9 9 9 10 10 11 12 15 21 23 22 25 24 24
3 3 3 3 3 3 2 2 2 2 2 2 2 2 1 1 2 2 2 2 2 3 3 4 6 6 6 3 4 5 6 8 9 11 10 10 10 12 11 13 15 19 17 17 17 24 21
3 3 3 3 2 2 2 2 2 2 2 2 2 2 1 1 2 1 2 1 3 2 2 2 4 5 5 3 3 4 5 8 8 10 10 10 11 10 12 13 15 15 15 17 20 22 22
4 3 3 3 2 2 2 2 2 2 2 2 2 2 1 1 2 2 2 2 2 2 2 3 3 3 2 5 5 4 4 6 7 8 10 10 11 10 12 13 13 14 15 15 14 14 19
4 3 3 3 3 2 2 2 2 2 2 2 1 2 1 1 1 3 3 3 2 3 2 3 4 3 5 3 2 3 4 5 6 7 9 9 11 11 13 13 13 14 14 13 14 14 15

GFSGBSN_850_temp_021.txt.gz
Temp
6 6 7 7 8 8 9 9 10 10 11 11 12 12 12 12 12 13 13 14 15 15 16 16 16 17 17 17 20 23 23 23 22 21 19 19 19 20 22 22 22 22 25 25 25 26 26
7 7 7 7 8 8 9 9 10 10 11 11 11 12 12 13 13 13 13 14 15 16 17 16 16 17 15 16 22 22 23 23 23 18 19 19 19 20 22 23 24 24 25 26 26 27 27
7 7 8 8 9 9 9 10 10 10 10 11 11 12 12 12 13 14 14 14 16 17 18 17 17 16 15 19 21 22 22 23 24 22 19 20 21 21 22 24 24 24 25 27 28 28 28
8 8 8 9 9 9 9 9 10 10 10 10 11 11 12 12 13 14 14 14 16 17 18 18 17 16 15 21 21 21 21 21 22 22 21 20 21 22 22 23 25 25 26 27 29 29 28
9 9 9 9 9 9 9 9 9 9 10 10 10 11 11 12 13 14 14 15 15 14 16 17 16 15 16 19 20 21 21 21 21 19 19 20 20 22 22 24 25 25 26 26 28 29 28
8 8 8 8 8 8 8 8 9 9 10 10 10 10 11 12 12 13 14 15 14 13 13 13 12 13 18 19 20 21 20 21 18 18 19 20 21 22 23 24 24 25 25 26 27 29 28
8 8 8 7 7 7 7 7 8 8 9 10 9 10 11 12 12 12 14 14 13 11 11 13 14 14 18 20 19 20 21 20 19 19 21 21 22 22 23 23 24 25 26 27 28 29 28
8 7 7 7 7 7 7 7 7 8 9 9 9 9 10 12 12 12 12 11 7 7 8 15 17 14 18 17 19 19 20 21 21 21 22 20 22 23 24 22 23 24 25 26 26 27 27
7 6 6 6 6 6 6 6 7 7 8 9 8 8 9 11 12 12 11 9 8 8 8 12 13 13 15 18 17 20 19 21 23 22 21 23 23 24 22 22 23 24 25 26 26 27 27
6 6 6 6 6 6 6 6 6 6 7 8 8 7 8 10 11 11 10 9 9 9 13 18 16 16 15 18 18 19 20 22 23 23 23 24 25 23 22 23 23 24 25 26 25 26 26
6 6 6 6 6 6 6 6 6 6 7 7 7 7 7 8 8 8 8 9 10 9 18 20 17 17 17 20 20 19 21 22 24 24 23 23 23 22 22 23 24 24 25 25 26 26 26
6 6 6 6 5 5 5 5 5 5 5 6 7 7 7 7 7 7 8 10 10 14 17 20 19 19 18 19 20 19 20 22 23 24 24 25 23 24 24 24 24 25 24 25 24 26 24
6 6 6 5 5 5 5 4 4 4 5 6 6 7 7 7 7 8 8 10 14 15 18 17 17 17 17 19 20 20 21 22 23 22 22 24 23 24 25 24 24 25 25 24 24 24 25
6 6 5 5 5 5 5 5 5 5 5 5 7 7 7 6 7 8 8 11 12 15 14 15 16 17 18 17 19 19 21 22 24 25 24 23 22 24 25 25 24 24 26 25 24 25 26
6 6 5 5 6 5 4 4 4 5 5 5 6 7 6 6 8 8 8 11 12 11 10 11 14 16 17 16 16 18 20 22 23 23 24 23 24 24 25 25 26 24 24 27 25 22 25
6 6 5 5 5 4 4 4 4 4 5 5 6 6 5 6 7 7 9 8 9 9 10 12 12 14 14 15 17 17 18 15 19 18 18 23 23 25 25 26 26 25 26 23 25 23 24
6 5 5 4 4 4 4 3 4 4 4 5 5 5 5 6 7 7 7 7 7 8 8 11 11 12 13 13 14 16 14 14 14 16 17 19 22 22 25 24 25 23 24 25 26 25 26
5 4 4 4 3 3 3 3 3 3 4 4 3 5 5 6 6 5 6 5 7 8 7 9 11 11 12 12 14 14 14 14 13 15 16 15 21 23 23 25 27 26 25 25 25 23 25
4 4 4 3 3 3 3 3 3 3 3 3 1 1 4 4 4 4 4 5 7 7 7 7 8 9 11 11 12 12 13 13 13 15 14 16 18 22 23 25 24 25 26 26 27 26 24
4 4 4 4 4 3 3 3 3 3 3 2 1 4 3 3 2 4 4 5 5 6 6 4 6 8 9 10 11 11 12 13 12 13 13 14 16 19 23 23 20 21 23 25 26 25 25
4 4 4 4 4 3 3 3 3 3 3 2 2 2 1 4 5 4 4 4 5 5 6 6 3 4 6 8 10 10 10 11 13 11 13 14 16 16 16 17 18 18 20 21 22 24 25
5 4 4 4 3 3 3 3 3 2 2 2 1 2 1 1 3 4 4 5 4 5 5 6 4 4 4 4 7 8 8 9 10 12 12 13 15 14 15 17 18 18 19 20 21 22 22
5 4 4 3 3 3 3 3 3 2 2 1 2 1 1 1 3 2 5 5 5 5 5 5 4 3 5 7 6 7 7 8 9 9 10 11 14 14 15 16 17 18 20 20 21 22 23
5 4 4 4 4 3 3 3 3 2 2 1 1 1 1 3 2 3 4 4 4 5 3 4 4 5 6 5 6 8 7 8 8 9 9 11 12 13 15 15 15 21 22 21 22 23 24
5 5 4 5 4 4 3 3 2 2 2 2 1 1 1 2 4 4 4 4 4 3 4 4 4 4 4 5 7 8 9 9 10 10 11 10 11 13 14 16 18 18 20 20 20 23 23
6 5 5 5 4 4 4 3 2 2 2 2 2 1 1 1 4 3 3 3 2 3 4 4 4 4 4 6 6 6 8 10 11 11 11 11 10 11 13 14 15 19 21 19 18 20 19
6 5 5 5 5 4 4 4 3 2 2 2 1 1 1 1 1 2 3 3 2 2 2 4 4 4 4 5 6 6 8 9 10 11 10 9 9 10 11 12 16 18 18 17 18 21 18
6 5 6 6 6 5 5 4 4 3 2 2 2 2 1 1 1 1 1 2 2 2 2 4 4 3 4 5 5 6 5 8 8 10 11 10 10 9 11 11 11 17 18 18 18 16 16
6 5 6 6 6 6 5 4 4 3 3 3 2 2 2 1 2 2 1 1 1 2 2 1 3 3 4 4 4 3 6 7 7 8 10 9 11 11 12 13 15 14 14 15 14 15 15

GFSGBSN_850_temp_024.txt.gz
Temp
8 9 9 10 10 10 10 10 11 11 11 11 11 12 12 13 13 14 14 15 16 16 16 16 16 17 16 16 20 22 23 23 23 20 22 22 23 24 27 28 27 27 29 29 29 29 30
9 9 10 10 10 10 10 10 10 10 10 11 11 11 12 13 13 14 14 15 15 16 17 17 17 16 15 18 21 21 22 23 21 21 22 23 24 25 26 27 28 29 28 29 29 31 30
9 9 9 9 10 10 10 10 10 10 10 10 11 11 12 12 13 14 14 15 15 16 17 17 17 16 13 19 20 20 19 20 20 21 22 23 24 24 26 28 27 28 28 30 31 31 31
9 9 9 9 9 9 9 10 10 10 10 10 11 11 12 12 13 14 14 15 16 16 17 17 17 15 16 19 20 20 19 20 21 21 23 23 23 24 26 27 27 29 29 30 32 32 31
9 9 9 9 9 9 9 9 9 9 9 10 10 10 12 12 13 14 14 15 15 15 15 16 15 12 20 19 19 19 20 20 21 21 22 23 23 24 26 26 28 29 30 30 32 32 32
8 8 8 8 8 8 8 9 9 9 9 10 10 10 11 12 13 13 13 14 13 12 12 12 10 13 17 21 20 20 20 21 20 21 21 22 22 25 27 27 27 29 29 31 31 32 32
8 8 8 8 8 8 8 9 9 9 8 8 9 10 11 12 12 13 14 11 13 12 12 17 20 20 20 20 19 20 20 21 21 21 24 23 25 25 27 28 29 30 30 30 31 32 31
8 7 7 8 8 8 8 9 9 9 8 8 8 9 10 11 12 12 12 11 7 6 10 14 15 17 18 18 21 21 21 22 23 23 26 25 24 27 28 28 28 28 29 30 31 32 31
7 7 7 7 7 7 7 8 8 8 8 8 8 8 10 11 12 10 8 8 6 7 12 17 17 17 17 18 21 22 21 23 25 25 25 26 27 27 27 27 27 27 28 29 30 31 31
7 7 7 7 7 7 7 7 7 8 8 8 8 8 9 11 10 9 9 8 7 7 15 23 19 18 18 20 21 22 21 24 25 25 26 27 28 27 27 26 27 27 28 29 29 30 29
7 7 7 7 7 6 6 6 6 6 7 7 7 8 9 9 8 8 7 7 7 8 20 23 21 18 19 22 25 22 22 23 26 26 27 26 26 27 26 26 27 27 30 29 29 29 29
7 7 7 6 6 5 5 5 5 6 6 6 7 8 8 7 7 7 7 7 7 15 19 23 21 21 21 21 24 24 22 24 25 27 27 27 28 28 28 28 28 28 28 28 28 29 28
7 7 6 5 5 5 6 6 6 7 7 7 7 8 8 7 7 6 7 9 15 18 22 21 21 22 23 23 23 24 23 23 24 24 25 26 27 28 28 27 28 27 27 27 27 28 28
7 6 6 6 6 6 6 6 6 6 6 7 7 8 6 7 6 7 7 13 14 19 17 18 18 19 20 23 23 24 24 24 25 27 28 26 25 27 28 28 27 27 28 28 26 28 29
6 6 6 6 6 6 6 6 6 6 6 7 8 7 7 7 7 7 9 13 15 13 13 13 17 19 22 21 21 23 24 25 25 27 27 27 27 29 28 28 29 27 28 30 30 30 30
7 7 6 6 5 5 5 5 5 5 5 6 6 7 8 7 7 8 12 12 12 12 12 14 15 17 19 20 20 22 24 22 26 27 27 27 27 29 28 29 29 29 29 28 29 27 27
7 6 6 5 5 5 5 4 4 5 5 7 6 8 7 7 8 11 12 11 11 11 11 12 13 14 16 17 18 21 22 18 20 25 22 26 27 28 29 27 28 28 28 29 30 30 29
6 6 6 5 5 4 4 4 4 4 5 4 6 11 7 7 11 10 10 9 9 11 11 12 13 13 14 15 17 19 19 18 16 19 21 24 26 27 27 29 29 29 28 29 28 27 29
6 6 6 4 5 4 4 4 4 4 4 3 6 7 7 7 9 9 9 10 10 10 9 9 10 12 13 14 15 16 16 16 16 19 20 22 24 25 27 28 29 28 29 29 29 30 28
6 6 6 5 4 4 4 4 4 4 4 3 5 9 9 8 7 8 8 9 9 9 9 9 5 9 11 14 15 15 16 16 16 16 14 16 23 25 27 27 27 27 28 29 29 29 29
6 6 5 5 5 4 4 3 3 3 3 3 5 7 5 7 7 7 7 9 8 7 9 9 5 4 5 10 13 14 14 15 16 15 18 19 21 21 25 23 24 28 28 29 28 28 29
6 5 5 5 5 4 4 3 3 2 3 3 5 5 4 3 5 7 7 8 8 7 8 8 7 5 6 5 7 8 11 14 15 15 16 18 19 19 21 22 22 23 24 26 28 29 29
6 6 5 5 5 5 4 4 3 2 2 3 3 3 2 4 6 7 7 6 6 7 7 7 8 8 8 7 7 8 10 11 12 13 14 16 18 18 21 22 22 22 23 24 25 26 27
6 6 5 5 5 5 5 4 3 2 1 1 2 2 2 5 7 6 6 6 6 5 4 6 7 8 8 7 8 9 11 12 13 13 14 14 16 18 20 20 19 24 27 26 25 26 26
6 6 6 6 5 5 5 4 4 3 2 1 1 1 2 4 6 7 6 6 6 5 6 7 7 7 7 7 10 11 13 12 13 14 14 15 15 17 18 19 22 23 23 24 24 25 27
6 6 6 6 5 6 5 4 4 3 2 1 2 1 1 2 6 6 5 5 6 6 7 7 7 7 7 9 10 9 12 13 14 14 15 16 14 16 17 17 19 23 24 23 23 22 26
6 6 6 6 6 6 5 5 4 3 3 2 2 2 1 1 2 3 5 5 4 5 6 7 7 7 7 8 9 10 11 13 13 14 14 14 14 14 16 16 19 23 22 21 20 22 22
6 6 7 6 7 6 5 5 5 4 3 3 3 2 2 1 2 3 4 4 4 4 4 6 6 6 7 7 8 10 10 11 12 14 14 14 14 14 15 15 16 20 20 19 19 19 19
6 6 7 7 7 6 6 5 5 4 3 3 3 3 2 1 2 3 3 3 3 3 3 2 6 7 7 7 7 7 9 10 10 12 14 12 14 15 16 16 18 18 18 17 17 18 18

GFSGBSN_850_temp_027.txt.gz
Temp
10 10 10 10 10 10 10 11 11 11 11 11 12 12 13 13 13 14 15 15 16 16 15 16 16 16 16 17 21 23 23 24 23 21 24 25 26 27 29 31 31 31 32 32 32 32 32
10 10 10 10 10 10 10 10 10 10 11 11 12 13 13 13 14 14 14 16 16 16 16 16 17 16 15 20 23 24 22 23 22 21 25 25 26 27 28 31 32 32 31 32 32 33 33
10 10 10 10 10 10 10 10 10 11 11 12 12 13 13 14 14 14 15 16 16 17 17 17 17 16 15 20 23 23 22 21 22 22 25 26 27 27 28 30 31 31 31 32 32 33 34
10 10 10 10 10 10 10 10 11 11 11 12 12 12 13 13 14 15 15 15 15 16 16 17 17 15 18 22 21 22 23 23 23 23 25 26 26 27 28 29 31 31 31 31 33 34 34
10 10 10 10 10 10 10 10 10 10 11 11 11 12 12 13 14 14 15 14 15 15 15 16 15 13 21 21 21 22 23 24 24 24 25 26 26 27 28 30 30 31 30 31 33 34 34
9 9 9 9 9 9 9 9 9 10 10 11 11 12 12 12 13 14 14 14 14 14 11 11 13 15 18 23 23 22 23 24 25 25 25 26 26 28 29 29 28 30 31 33 33 35 34
9 9 9 8 9 9 9 9 9 9 9 10 11 11 12 12 13 13 14 15 15 14 13 19 21 21 24 23 23 23 23 24 25 25 26 26 27 27 28 30 31 32 33 33 34 35 34
9 9 9 9 9 9 9 9 9 9 9 10 10 11 12 11 12 12 13 13 11 10 13 15 17 19 21 23 24 24 23 24 26 26 27 27 26 29 29 30 30 31 32 33 34 35 34
9 9 9 9 9 9 9 9 9 9 9 9 9 10 12 12 11 12 12 11 11 11 14 18 20 20 21 21 23 25 24 25 27 27 27 28 29 29 30 30 30 30 31 32 33 34 35
8 9 8 8 8 8 8 8 8 8 9 9 9 9 10 12 12 11 13 11 11 11 15 23 24 24 22 22 24 24 24 25 27 27 28 28 31 30 29 30 31 30 32 32 32 33 32
8 8 8 8 7 7 7 8 8 8 9 9 9 9 10 9 8 11 10 11 11 12 19 27 24 22 23 23 27 24 25 25 28 28 29 28 29 30 29 30 31 30 32 31 31 32 32
7 7 7 7 7 7 8 8 8 9 9 9 9 9 9 10 11 11 10 11 12 16 19 26 25 24 24 24 26 27 26 25 27 29 29 30 30 31 31 31 31 31 31 31 31 31 30
7 7 6 6 7 8 8 8 8 8 8 9 9 9 8 8 10 10 10 12 16 17 25 23 22 25 25 25 25 28 26 25 27 26 27 29 30 31 31 30 31 30 30 28 29 30 29
7 6 7 7 7 7 8 7 8 8 8 9 9 9 8 10 10 10 11 15 14 19 18 18 18 19 21 26 26 27 26 26 26 28 29 28 28 30 31 31 30 29 30 30 27 29 31
7 7 7 7 7 7 7 7 7 7 8 8 9 11 11 11 10 11 12 14 16 17 15 15 17 21 22 24 26 26 26 26 27 28 27 29 29 31 31 31 31 30 30 32 33 33 33
7 7 7 7 7 7 6 6 6 7 8 8 8 11 12 10 10 12 14 14 13 14 15 15 15 19 19 23 24 25 26 28 28 28 30 30 29 32 31 31 31 32 31 30 31 30 31
7 7 7 7 7 7 6 6 5 6 7 8 9 12 11 10 12 14 13 13 13 13 14 14 14 15 15 15 17 23 26 25 26 27 29 29 30 31 32 30 30 30 31 31 32 32 32
7 7 7 7 6 6 6 6 5 5 6 6 10 14 11 10 14 14 12 13 12 14 13 13 14 15 14 14 14 18 23 22 19 22 25 29 29 28 31 32 32 32 31 31 30 30 32
7 7 7 6 6 6 5 5 5 5 5 5 9 12 12 11 13 13 12 13 12 12 13 12 12 11 12 13 12 12 17 19 19 22 22 27 27 27 30 31 31 31 31 32 32 33 31
7 7 6 6 6 6 5 4 4 4 5 5 9 13 12 12 12 11 10 11 11 12 12 12 11 11 11 13 15 14 13 17 18 19 16 19 25 26 29 30 31 29 31 31 32 32 32
7 6 6 6 6 5 5 4 4 4 4 4 8 11 9 10 11 10 11 11 10 10 11 11 8 9 9 9 12 9 11 15 19 18 21 22 22 26 28 31 32 30 30 31 31 31 31
7 6 6 6 6 6 5 4 4 3 3 4 6 7 7 8 8 10 10 10 10 10 10 11 10 10 11 9 9 9 9 12 14 17 19 22 21 24 26 29 27 28 31 31 31 31 32
7 7 6 6 6 5 5 5 4 3 2 2 3 4 4 7 9 9 9 10 10 9 9 9 10 10 11 11 11 11 11 13 14 15 16 18 21 23 23 26 26 25 28 30 31 32 32
7 7 6 6 6 5 5 5 4 3 2 2 1 1 2 7 9 10 9 9 9 9 9 9 9 10 10 10 10 11 12 14 15 16 17 17 18 21 22 24 22 27 29 29 29 31 32
7 6 6 6 6 5 5 5 5 4 2 2 2 1 2 5 7 9 9 9 8 8 9 10 10 10 9 10 12 12 14 15 16 16 17 18 17 19 21 24 25 26 28 28 27 27 29
6 6 7 7 6 5 5 5 5 4 3 3 2 1 1 2 7 7 8 8 8 9 9 9 9 10 9 11 12 11 14 16 16 16 18 18 18 17 20 21 23 26 27 27 28 26 29
7 6 7 7 6 5 6 5 5 4 3 3 3 2 2 1 2 5 7 7 7 7 7 8 8 10 10 10 10 13 14 15 16 17 16 17 17 16 18 19 23 26 26 26 23 22 25
6 6 6 6 5 6 6 5 5 5 3 3 3 3 2 2 2 3 5 5 6 6 6 8 8 10 11 9 10 11 14 13 14 17 17 16 16 17 18 18 19 24 24 22 20 20 20
6 6 7 6 6 6 6 5 5 5 4 4 3 3 3 2 2 4 4 4 5 5 5 5 7 8 8 9 8 9 12 13 14 14 17 15 17 18 18 19 21 21 20 21 20 19 19

GFSGBSN_850_temp_033.txt.gz
Temp
11 11 11 11 11 11 12 12 13 13 13 13 14 14 14 15 15 15 16 16 16 16 16 16 16 16 14 14 19 24 25 24 24 22 21 21 22 24 24 25 27 28 25 27 29 26 27
11 10 10 11 11 11 12 12 12 12 13 13 14 14 14 15 15 16 16 16 16 16 16 16 16 15 14 12 23 24 23 24 24 22 22 21 23 25 26 26 27 29 27 26 27 28 26
10 10 11 11 11 11 11 11 12 12 13 13 14 14 14 15 15 16 16 16 15 16 15 15 15 15 12 19 24 23 23 24 24 24 22 22 23 25 26 26 28 29 29 28 27 28 29
10 10 11 10 10 11 11 12 12 12 13 13 14 14 14 15 15 15 16 15 16 16 15 15 15 13 12 24 23 23 22 23 23 23 23 23 24 24 26 28 28 28 28 27 27 27 29
11 11 11 11 11 11 12 12 12 12 12 12 13 13 14 14 15 15 15 16 16 16 15 14 14 12 13 21 22 25 23 23 23 22 22 23 24 24 26 26 25 26 25 27 29 31 32
11 11 11 11 11 11 11 11 11 11 11 12 13 13 14 14 14 14 15 15 15 15 15 14 12 11 19 23 23 24 24 25 24 24 24 24 25 24 25 24 23 24 25 26 28 31 30
11 11 11 11 11 11 11 11 12 12 12 12 12 13 14 14 14 14 15 15 14 15 14 14 15 16 16 21 23 24 24 24 25 25 23 24 22 23 24 25 26 27 27 27 29 31 30
10 11 11 11 10 10 10 11 11 11 12 11 12 12 13 15 14 14 14 14 14 14 14 15 15 16 18 20 17 22 24 24 24 23 24 23 22 25 27 27 26 27 27 27 29 31 30
10 10 10 10 10 10 11 11 11 11 11 11 11 11 12 14 14 14 14 14 14 14 14 15 17 16 17 17 18 19 23 24 24 24 24 23 25 27 27 26 26 26 26 27 28 30 31
10 10 10 10 10 10 11 11 11 11 11 11 11 12 13 12 13 13 13 13 14 14 11 17 20 21 20 18 20 22 22 25 25 24 25 24 26 26 26 26 27 25 28 28 29 28 27
10 10 10 10 11 10 10 10 10 11 11 11 11 11 12 10 11 12 13 13 14 15 13 22 19 20 18 20 24 24 25 23 24 25 25 25 26 26 25 26 28 27 28 28 29 27 26
9 10 10 10 10 10 10 10 10 11 11 11 11 11 11 12 11 13 13 13 14 13 14 19 16 17 17 19 21 23 24 23 26 25 26 26 28 27 27 28 28 29 28 27 27 27 25
9 9 9 9 9 9 9 9 10 10 10 11 12 11 12 11 12 13 13 14 12 13 17 16 15 16 16 17 18 19 23 23 23 22 23 25 26 28 28 27 28 27 25 23 23 24 24
9 9 8 8 9 9 9 9 10 10 10 11 12 12 12 12 13 13 13 13 12 16 14 15 15 15 15 15 14 14 17 22 24 24 23 23 23 26 28 27 26 27 26 21 21 23 25
8 8 8 8 9 8 8 9 9 9 10 10 12 13 13 13 13 13 14 12 13 14 15 14 15 14 14 14 12 12 13 17 24 24 22 23 24 28 28 29 28 26 25 26 24 26 23
8 8 8 8 8 8 8 8 8 9 9 10 11 11 13 13 14 14 13 12 14 15 15 14 12 13 12 12 10 11 11 16 12 15 21 24 22 27 28 29 29 27 27 25 25 23 23
8 8 8 8 8 8 7 8 7 7 9 10 10 9 14 14 14 14 12 13 14 15 13 13 13 12 13 9 10 10 11 11 12 12 15 17 22 24 27 27 27 27 26 27 25 23 21
8 8 8 7 7 7 7 7 7 7 7 9 7 9 13 13 13 14 13 14 14 14 12 12 12 14 12 12 10 10 9 9 9 11 12 16 16 22 24 28 29 28 27 27 25 23 24
8 7 7 7 7 6 6 7 6 6 6 6 5 9 12 11 11 11 12 13 13 10 11 12 11 11 13 9 8 8 9 11 9 10 11 12 15 20 23 24 27 28 28 28 25 23 24
8 7 7 7 7 6 6 6 6 6 6 6 6 9 9 9 10 10 11 11 11 11 11 11 11 12 11 10 10 7 8 11 9 10 11 12 15 16 20 24 25 27 28 28 26 26 26
7 7 7 7 7 6 6 6 5 6 5 5 7 8 6 6 7 8 10 11 11 10 11 12 11 10 9 8 10 8 10 10 11 10 10 10 13 17 21 24 26 28 28 29 27 26 26
7 7 7 7 6 6 6 5 5 4 5 5 5 4 2 3 5 8 9 9 10 11 11 10 10 10 10 9 8 8 10 10 9 9 10 11 12 16 20 24 26 26 29 29 29 28 27
7 7 7 6 6 6 5 5 5 4 2 3 4 3 2 3 5 7 8 9 9 10 10 11 11 10 10 11 10 11 12 12 11 11 9 10 14 14 18 23 25 24 26 29 29 29 28
7 7 6 6 6 6 5 5 4 3 3 2 3 3 1 3 4 6 7 8 8 9 8 10 11 8 9 10 10 11 12 12 13 13 11 10 13 14 16 20 20 23 26 28 29 29 30
7 7 6 6 6 6 5 5 4 4 3 3 3 3 2 2 3 4 7 7 7 8 8 9 10 9 9 9 9 10 10 11 12 14 12 13 13 13 15 19 22 25 24 23 28 20 21
7 7 7 7 6 6 5 5 5 4 3 3 4 3 2 1 3 3 3 5 5 6 7 8 8 9 9 9 8 8 8 10 12 14 13 14 15 14 15 17 20 17 20 22 25 17 20
7 7 7 7 7 7 6 6 6 4 3 3 4 3 3 1 2 3 4 4 4 5 5 7 7 8 7 5 7 9 9 13 12 11 12 14 14 14 15 16 15 18 20 20 20 16 19
8 8 8 8 8 7 7 7 6 4 3 3 4 4 3 3 3 3 3 3 3 4 5 6 6 7 7 6 6 5 6 10 10 11 8 13 13 14 16 16 13 16 19 16 17 18 18
8 8 9 9 8 8 8 8 7 4 4 4 4 4 4 3 3 4 3 4 4 4 3 5 5 6 7 6 6 7 8 9 10 8 10 10 10 9 13 13 15 13 15 18 18 18 18

GFSGBSN_850_temp_036.txt.gz
Temp
12 12 13 13 13 13 13 13 13 14 14 14 15 15 15 16 16 16 16 16 15 14 14 15 15 15 14 14 20 23 24 23 23 21 21 21 21 20 20 22 22 23 24 25 25 26 26
11 12 12 13 13 13 13 13 13 14 14 14 15 15 15 16 16 16 16 15 15 15 16 15 15 14 13 11 24 23 22 23 24 22 21 21 22 22 22 22 22 25 24 26 27 26 26
12 12 12 12 12 12 13 13 13 13 14 14 14 14 15 15 16 16 15 15 15 15 15 15 15 14 11 20 23 22 21 22 23 24 22 22 22 22 23 23 24 25 24 26 26 27 26
12 12 12 12 12 12 12 12 12 12 13 13 14 14 15 15 16 16 15 15 15 15 16 16 14 12 12 23 22 22 21 21 21 23 24 24 23 22 22 24 24 24 24 24 27 28 27
11 11 11 12 12 12 12 12 12 12 12 13 13 14 15 15 16 15 15 15 15 15 15 15 13 12 14 20 21 21 22 21 21 22 22 22 21 21 22 21 20 22 22 23 26 27 28
11 11 11 11 11 12 12 12 12 13 13 13 13 14 15 15 15 14 14 15 16 15 15 13 11 11 18 21 20 21 21 22 21 21 20 21 22 18 20 18 20 21 22 23 25 27 27
11 11 11 11 11 12 12 12 13 13 12 12 13 13 14 15 15 14 14 15 13 14 13 13 14 14 14 17 18 21 20 22 21 21 18 20 19 18 20 21 22 23 23 24 26 28 28
10 10 11 11 11 11 11 12 12 12 12 12 12 13 13 14 15 14 14 13 13 13 13 17 17 15 15 17 15 22 20 21 21 20 20 19 19 21 22 22 23 23 23 24 26 27 26
10 10 10 10 10 10 11 11 11 11 12 12 12 12 13 14 14 14 14 13 13 13 12 14 17 17 17 17 15 18 18 21 21 20 21 20 22 23 23 23 23 23 22 24 24 26 27
10 10 10 10 10 10 10 11 11 11 12 12 13 13 13 13 14 13 13 13 14 13 8 13 16 17 16 18 17 18 19 19 22 21 22 21 23 23 23 23 24 22 25 25 25 25 23
10 10 10 10 10 10 10 10 11 12 12 12 13 13 14 12 13 13 13 13 13 13 13 17 15 16 16 16 16 17 17 19 19 21 21 22 23 23 23 23 25 24 25 25 25 24 24
10 10 10 10 10 10 10 10 11 11 12 12 13 13 13 13 13 13 13 13 14 10 12 16 15 15 15 15 16 14 14 16 21 20 21 23 25 24 24 25 25 26 25 24 24 22 21
9 9 9 9 10 9 10 10 10 11 11 12 13 13 12 13 14 13 13 13 9 10 14 14 13 14 14 14 15 13 13 12 13 17 19 22 23 24 25 24 24 24 21 21 21 21 22
9 9 9 9 9 9 9 9 10 10 11 12 13 13 13 14 13 13 12 9 10 14 13 13 12 13 12 14 13 12 12 10 12 9 17 20 20 23 25 24 24 23 23 20 19 19 22
9 9 9 8 8 8 8 8 9 10 10 11 13 13 13 14 13 13 12 7 10 12 13 12 12 11 11 12 12 11 10 10 11 9 8 17 20 24 25 26 25 22 23 21 19 20 20
8 8 8 8 8 8 8 8 8 9 10 10 12 13 12 12 13 13 9 8 11 13 12 12 10 11 10 10 10 9 10 12 11 10 9 10 14 23 24 26 25 25 23 22 18 20 20
8 8 8 8 8 8 8 7 7 7 9 10 11 9 12 12 13 13 7 8 12 11 12 10 10 9 10 10 10 9 10 10 10 9 9 9 10 19 23 24 24 23 24 23 22 18 20
8 8 8 7 7 7 7 7 7 6 7 9 8 4 11 11 10 8 7 10 12 10 11 11 11 10 10 8 10 10 9 8 9 9 6 9 9 10 19 23 24 26 23 23 23 20 18
8 7 7 7 7 7 6 6 6 6 5 5 6 7 11 10 5 5 7 9 11 9 9 10 10 10 10 8 8 8 8 9 9 8 6 6 9 8 17 20 22 23 24 24 20 19 21
8 7 7 7 7 6 6 6 6 6 5 6 5 3 7 7 6 6 4 6 8 11 10 11 10 9 9 8 8 8 8 9 9 9 7 6 5 7 11 16 17 22 23 24 25 23 23
7 7 7 6 6 6 5 5 5 5 5 5 5 4 3 2 4 3 3 6 8 8 10 10 9 9 8 7 8 8 9 10 9 7 6 5 5 8 11 14 16 18 24 25 24 24 24
7 7 7 6 6 6 5 5 5 5 4 4 4 4 3 3 3 3 5 6 7 7 8 8 6 8 8 6 7 7 9 8 8 8 6 7 6 8 11 18 19 22 24 24 26 26 23
7 7 7 6 6 6 5 5 5 3 3 3 3 3 2 2 3 2 5 6 6 8 6 8 7 7 7 8 9 9 9 9 9 8 7 7 6 7 10 16 22 22 20 23 26 26 26
7 7 7 6 6 6 6 5 5 3 3 2 3 2 2 3 3 3 3 4 6 6 6 7 8 6 8 9 9 9 9 10 10 10 9 8 6 7 10 14 19 18 19 19 20 19 18
7 7 7 7 7 6 6 6 5 3 3 3 3 3 2 2 2 3 3 4 3 4 6 6 7 7 8 8 5 6 8 9 10 10 10 10 8 7 12 14 19 16 15 17 17 16 17
7 7 7 7 7 7 7 7 6 4 3 3 4 3 3 1 2 2 3 3 3 4 5 6 6 7 8 3 5 7 6 6 8 10 11 8 11 9 11 14 14 13 15 19 19 14 16
8 8 7 8 8 8 8 7 6 4 3 3 3 3 3 2 3 3 3 3 2 3 3 5 4 6 7 4 5 6 6 7 7 7 8 7 11 12 13 13 13 13 14 18 14 15 16
8 8 8 8 8 8 8 7 6 4 3 3 4 4 4 3 3 3 3 3 3 3 4 4 5 5 4 5 5 4 5 6 6 6 6 7 8 8 11 10 11 11 12 12 13 15 15
8 9 9 9 8 8 8 7 5 4 4 4 4 4 4 3 4 4 4 4 4 4 3 4 4 4 6 3 4 4 5 6 7 7 8 7 6 7 8 9 9 9 8 10 11 13 16

GFSGBSN_850_temp_042.txt.gz
Temp
12 12 12 12 13 13 13 13 13 14 14 14 14 14 15 15 15 16 16 16 16 16 17 16 16 16 16 16 18 19 21 21 20 19 20 19 17 18 17 17 19 19 20 21 22 23 23
12 12 12 12 12 13 13 13 13 13 14 14 14 15 15 15 15 16 16 16 16 16 17 16 16 15 14 14 17 17 19 20 20 19 19 20 18 19 19 18 18 21 21 21 22 22 23
12 12 12 12 12 12 12 12 13 13 13 14 14 14 15 15 15 16 16 16 16 16 16 16 15 14 13 15 16 17 17 17 19 20 19 19 20 20 20 20 21 21 21 22 22 23 22
11 11 11 12 12 12 12 12 12 12 13 13 13 14 15 15 15 16 16 15 16 16 16 15 16 13 15 17 17 17 18 18 18 18 18 18 19 20 20 20 21 20 21 19 22 23 24
11 11 11 11 12 11 11 12 12 12 12 13 13 14 15 15 15 16 15 16 16 15 15 15 14 12 17 17 17 18 18 19 18 17 17 18 18 19 20 19 17 17 18 19 22 23 25
11 11 11 11 11 11 11 12 12 12 13 13 13 14 15 15 15 15 15 16 16 15 15 15 14 13 17 15 16 17 18 17 17 17 16 17 18 15 13 15 15 17 19 20 22 24 23
11 11 11 11 11 11 11 12 12 12 13 13 13 13 14 14 15 14 15 15 15 14 15 13 14 15 15 16 16 16 18 17 17 16 14 16 14 16 17 17 18 19 20 21 22 24 23
11 11 11 11 11 11 11 11 12 12 12 12 13 13 14 14 14 13 13 13 11 10 10 15 15 15 15 15 15 16 17 17 17 15 15 14 14 17 18 17 18 18 19 20 22 24 23
10 10 10 10 10 11 11 11 11 11 12 13 13 13 14 14 14 13 13 12 12 13 10 14 15 15 15 15 15 14 15 16 16 16 15 14 16 18 18 17 17 17 17 19 21 23 24
10 10 10 10 10 10 10 11 11 12 12 13 13 13 14 14 14 13 13 12 12 13 8 13 14 14 14 15 14 14 15 14 16 17 16 15 18 19 18 18 17 15 19 20 21 21 20
10 10 9 10 10 10 10 11 11 11 11 12 13 13 13 13 13 13 12 12 13 13 11 14 13 14 14 14 14 13 14 14 13 14 15 16 18 18 18 18 18 18 19 19 20 20 21
10 9 9 9 10 9 10 10 10 11 11 12 13 13 13 13 13 13 13 13 13 10 11 13 13 12 11 12 13 12 13 13 12 11 13 15 18 18 19 20 20 20 20 18 19 17 18
9 9 9 9 9 9 9 9 9 10 10 11 12 12 12 12 12 13 13 13 9 9 12 11 11 10 11 10 10 10 10 7 7 10 8 11 15 18 20 18 19 19 19 15 15 16 19
9 9 8 8 8 8 8 9 9 9 10 11 12 12 11 12 12 13 13 9 10 11 11 11 11 10 10 9 9 9 9 8 7 7 7 7 13 17 18 18 18 19 18 14 15 15 19
9 8 8 8 8 8 8 8 8 9 9 10 12 13 11 11 12 13 13 7 8 10 10 10 10 9 9 9 10 8 7 8 7 7 7 6 8 11 14 17 20 18 18 18 16 15 16
8 8 8 8 8 8 7 7 7 8 8 9 11 11 10 11 12 12 8 7 8 10 10 10 9 9 8 9 9 8 8 9 6 7 7 7 7 9 12 15 18 19 19 18 15 17 16
7 7 8 8 8 7 7 6 6 7 8 9 10 10 10 11 11 11 6 6 9 10 11 9 8 8 8 8 7 7 8 9 9 7 7 6 6 9 10 13 17 18 19 19 19 15 18
7 8 7 7 7 7 7 6 6 6 7 8 7 4 9 10 7 3 3 4 8 9 10 9 9 8 8 7 7 7 7 9 7 7 6 7 6 7 9 12 13 11 17 17 20 17 14
7 7 7 7 7 7 6 6 6 6 6 5 4 5 8 9 3 1 2 4 6 9 8 9 9 8 8 7 7 7 8 9 7 6 6 5 5 7 8 13 12 14 17 18 16 19 19
7 7 7 7 7 6 6 6 6 5 5 5 4 2 6 6 4 2 2 3 6 9 9 8 8 8 7 7 6 7 7 8 6 7 8 6 5 6 7 10 8 8 11 17 16 20 20
7 7 7 7 7 6 6 6 6 4 4 4 4 1 2 1 2 2 3 3 4 6 7 7 7 6 5 5 6 5 6 7 6 7 6 4 5 6 6 6 7 8 9 11 12 16 20
7 7 7 7 7 6 6 6 4 3 3 4 4 3 3 3 3 3 3 3 4 5 4 5 4 6 5 4 5 5 6 5 6 5 5 4 4 6 5 7 8 8 11 12 13 15 18
7 7 7 7 7 6 6 6 4 3 3 3 3 3 2 3 4 4 4 4 4 4 3 4 5 4 4 5 6 6 6 6 5 4 4 4 4 4 4 9 10 10 12 14 14 13 14
8 8 7 7 7 7 7 6 4 3 3 3 3 3 2 3 3 4 4 3 4 4 4 3 3 3 4 6 6 5 4 4 5 5 5 4 4 4 5 7 13 12 13 15 14 14 14
8 8 8 8 8 8 8 7 5 3 3 3 3 3 3 2 3 3 4 4 3 3 3 4 4 5 5 4 3 2 3 4 4 6 7 5 4 5 5 8 13 13 11 10 11 13 13
8 8 9 9 8 8 7 6 4 4 3 3 3 3 3 2 3 3 3 3 3 3 3 4 4 5 5 3 3 4 4 5 6 5 6 5 4 4 6 8 13 10 10 10 12 12 12
9 9 9 9 8 8 7 5 4 3 4 4 3 3 3 3 3 3 4 3 3 2 2 2 4 4 5 3 4 4 4 3 5 6 5 5 4 4 6 8 10 9 9 11 13 10 10
9 9 9 9 9 8 8 6 4 3 4 4 4 4 3 4 4 4 3 3 3 3 2 4 3 4 3 4 4 3 4 4 5 4 5 6 6 8 8 11 11 8 9 9 9 9 9
9 9 9 9 9 9 8 7 4 4 4 4 4 4 4 3 4 5 4 4 4 4 4 2 3 3 3 3 3 3 4 4 4 6 5 5 5 5 5 7 6 7 6 6 7 8 8

GFSGBSN_850_temp_045.txt.gz
Temp
12 12 12 12 12 12 13 13 13 13 13 14 14 14 15 15 16 16 17 17 17 17 17 17 15 16 15 16 17 17 19 20 19 19 16 17 17 19 21 20 20 21 22 22 22 23 23
12 12 12 12 12 12 12 12 13 13 13 13 14 14 15 15 15 16 17 17 17 17 17 16 16 16 15 17 16 16 17 18 18 17 16 17 18 19 20 20 22 23 21 22 23 24 24
11 11 12 12 12 12 12 12 12 12 13 13 14 14 15 15 16 16 16 17 17 17 17 16 16 16 15 15 16 17 17 16 18 16 16 17 18 20 20 22 21 22 22 23 23 24 24
11 11 11 11 11 11 12 12 12 12 12 13 13 14 14 15 16 16 16 16 16 17 16 16 16 16 16 16 16 17 17 17 16 16 17 18 18 19 20 20 22 22 23 21 25 24 25
11 11 11 11 11 11 11 12 12 12 12 13 13 13 14 15 15 16 16 16 15 16 16 16 16 15 16 16 16 16 18 17 17 16 17 18 18 19 20 21 22 22 24 23 25 25 27
11 11 11 11 11 11 11 11 12 12 12 12 13 13 14 14 15 15 16 16 15 16 15 15 16 16 16 15 15 16 16 16 16 15 17 17 19 20 20 21 22 23 23 23 25 27 26
11 11 11 10 11 11 11 11 11 12 12 13 13 13 14 14 14 13 15 15 15 14 15 13 14 15 15 16 16 16 16 16 15 16 18 18 19 19 21 21 22 22 22 24 24 26 26
11 10 10 11 11 11 11 11 11 12 12 12 12 12 14 14 13 13 14 12 11 11 12 14 14 15 15 15 15 16 17 17 17 18 18 18 18 21 20 20 20 21 21 23 24 24 26
10 10 10 10 10 10 11 11 11 11 11 12 12 13 14 14 13 13 13 12 12 12 12 14 14 14 14 15 14 14 14 15 18 18 18 19 20 20 19 20 20 20 21 22 23 24 26
11 10 10 10 10 10 10 10 10 11 11 12 12 12 14 13 13 13 12 12 13 13 14 15 15 14 14 15 15 14 14 14 17 18 19 19 20 19 20 20 20 21 22 21 22 22 25
10 10 10 10 9 9 9 10 10 10 11 11 12 12 13 13 13 12 12 12 13 13 15 15 14 14 14 15 14 14 13 14 16 17 17 19 19 19 19 20 21 21 22 21 22 22 22
10 10 9 9 10 9 9 10 10 10 11 11 12 11 12 13 12 12 13 13 12 14 14 14 14 13 14 13 13 12 11 11 12 14 15 17 16 19 21 22 21 22 21 22 22 22 21
9 9 9 9 9 8 9 9 9 10 10 10 11 11 11 11 12 13 13 12 14 14 14 13 13 13 12 12 12 12 11 11 12 15 15 15 18 19 21 20 21 21 21 20 20 20 21
8 8 8 8 8 8 8 8 8 9 9 10 11 11 10 10 12 13 13 14 13 13 12 13 12 12 12 12 11 12 11 11 10 11 12 13 18 17 14 21 21 21 21 21 20 21 23
8 7 8 8 8 7 8 8 8 8 9 9 11 11 9 10 11 12 13 12 13 12 12 12 11 12 11 12 12 12 11 10 9 10 13 12 13 14 15 15 17 21 20 23 22 21 22
7 7 8 8 7 7 7 8 8 8 8 9 10 10 10 11 12 12 13 11 11 11 11 12 11 12 11 11 11 11 11 11 9 9 9 10 11 12 13 14 18 18 23 20 21 20 20
7 7 8 8 7 7 7 7 7 8 8 9 10 10 9 10 11 10 12 10 10 11 11 11 11 11 11 11 11 11 11 11 10 8 9 10 10 12 13 15 18 20 19 21 22 22 22
7 8 8 8 7 7 7 7 7 7 8 9 8 11 9 10 10 6 9 6 7 10 10 11 11 11 11 10 10 10 10 12 9 9 9 9 7 8 11 14 14 14 13 20 22 20 22
8 8 8 7 7 7 6 6 7 7 7 6 5 6 8 9 8 7 6 6 7 9 10 10 10 10 10 10 9 10 10 10 8 10 9 8 7 9 13 16 15 14 16 16 21 23 22
8 8 8 7 7 7 6 6 6 6 6 5 5 8 6 5 3 4 3 5 7 8 9 8 9 9 9 9 9 9 9 9 8 9 8 8 7 9 10 13 12 11 14 14 17 22 21
8 8 8 7 7 7 6 6 5 5 5 5 4 3 3 5 5 4 4 4 5 7 7 7 7 7 7 7 8 8 9 9 8 8 7 8 7 8 9 9 10 10 10 11 12 18 22
8 8 8 7 7 7 7 6 4 3 3 4 4 4 3 4 3 4 4 5 5 5 4 5 5 6 4 5 7 8 8 9 9 9 8 7 7 8 8 10 10 9 11 12 13 14 19
8 8 8 8 8 8 7 6 4 3 3 3 3 3 2 3 4 4 4 4 4 4 4 4 4 2 3 4 4 5 7 7 8 8 8 6 5 6 8 10 10 11 12 13 14 17 19
9 8 8 8 8 8 7 6 4 3 3 3 3 3 3 4 4 4 4 4 4 4 4 4 4 4 4 4 4 5 6 6 7 8 8 6 4 6 7 8 8 15 17 16 16 15 17
9 9 9 8 8 7 6 5 4 3 4 4 3 3 3 3 3 4 4 4 4 3 4 4 5 4 4 4 4 5 5 4 6 7 8 8 4 6 6 7 8 13 14 16 17 13 13
10 9 9 9 8 7 6 4 4 4 4 4 4 3 3 3 4 3 3 4 4 3 4 5 5 4 4 4 4 5 5 5 7 7 8 7 6 5 5 7 9 10 11 12 14 14 12
10 9 9 9 9 8 7 5 4 4 4 5 4 4 3 3 4 3 4 4 3 3 3 3 4 4 3 4 5 5 5 3 6 5 5 5 4 4 6 6 6 9 11 12 14 12 10
10 9 9 9 9 9 8 7 5 4 4 5 4 4 4 3 4 4 3 3 3 3 3 3 5 4 3 4 5 5 5 5 5 4 5 5 5 5 5 6 6 6 10 12 10 9 9
10 10 10 10 10 9 9 9 6 5 5 5 4 5 4 3 4 4 4 3 4 4 4 3 4 3 3 3 4 4 4 4 5 6 4 6 4 5 5 5 3 6 7 8 7 8 7

GFSGBSN_850_temp_048.txt.gz
Temp
12 12 12 12 12 12 12 12 13 13 13 13 14 15 15 15 16 16 17 17 17 17 17 17 17 17 16 16 18 17 19 21 19 17 19 20 21 23 25 26 25 26 27 25 24 25 26
12 12 12 12 12 12 12 12 12 12 13 13 14 14 15 15 16 16 17 17 17 17 17 17 17 17 15 21 16 16 17 16 16 18 19 21 22 23 24 25 26 27 26 25 25 27 27
11 11 12 12 11 12 12 12 12 12 12 13 13 14 15 15 16 16 16 16 17 17 17 17 17 17 18 17 16 17 16 16 17 18 20 21 21 22 24 25 25 26 26 27 26 25 28
11 11 11 11 11 11 11 11 12 12 12 13 13 14 15 15 16 16 16 16 17 16 17 17 16 17 18 16 16 17 16 16 16 18 20 20 20 22 23 24 25 26 27 27 29 28 28
11 11 11 11 11 11 11 11 12 12 12 13 13 14 14 15 15 15 16 16 16 16 16 17 16 15 19 17 18 17 17 17 17 17 18 19 20 22 23 25 26 27 28 28 29 29 30
11 11 11 11 11 11 11 11 11 11 12 12 13 13 14 15 15 15 15 15 15 17 16 17 17 18 18 17 17 17 17 17 17 18 19 20 21 24 24 26 26 28 27 30 29 29 30
11 11 11 11 11 11 11 11 11 11 12 12 12 13 14 14 14 14 15 15 16 16 17 17 17 18 17 17 17 17 17 18 18 19 21 21 22 23 25 26 27 27 28 29 29 31 29
11 11 11 11 11 11 11 11 11 11 11 12 12 12 13 13 13 13 13 14 12 12 17 15 15 16 16 16 19 18 18 20 20 21 22 22 22 25 26 25 25 26 26 27 29 29 29
10 10 10 10 10 10 10 10 10 11 11 11 12 12 13 13 13 13 13 12 13 12 17 17 16 17 17 17 18 17 17 19 21 22 23 23 25 25 24 23 23 24 25 26 27 27 28
10 10 10 10 10 9 9 9 9 10 10 11 11 12 13 13 13 13 13 13 13 13 19 18 18 17 17 17 18 16 16 17 21 22 23 23 25 23 23 23 24 25 26 26 26 26 27
10 9 9 9 9 9 9 9 10 10 10 10 11 11 13 13 13 13 13 13 13 12 19 18 18 15 16 18 17 17 15 18 21 21 21 23 23 23 23 23 25 24 26 26 25 26 26
9 8 8 8 9 9 9 9 9 9 10 10 11 11 12 12 12 12 13 13 13 18 19 17 17 17 18 17 17 16 16 16 16 20 21 22 21 22 24 25 24 24 24 25 25 26 25
8 8 7 8 9 9 9 9 9 9 9 10 11 11 12 11 12 13 13 13 18 18 17 17 17 17 17 17 17 17 17 18 20 20 20 21 21 23 23 24 25 24 24 24 24 25 25
8 8 7 8 9 9 8 9 9 9 9 10 11 11 10 10 12 13 12 17 16 18 17 16 16 16 17 16 16 16 16 18 16 18 20 21 21 22 19 22 24 23 25 25 24 26 27
8 8 7 8 8 8 8 8 9 9 9 10 11 9 10 10 11 12 14 17 18 17 17 16 16 16 17 16 16 16 16 16 16 16 18 19 20 19 19 20 21 23 24 26 26 28 28
8 8 8 8 8 8 8 8 8 9 10 10 11 9 10 11 12 12 16 15 16 15 15 15 15 16 16 16 15 15 16 15 14 14 15 16 17 19 18 19 20 21 26 24 25 23 24
8 8 8 8 8 8 8 8 8 9 10 10 8 12 10 11 11 14 16 16 14 14 13 14 15 15 15 15 15 15 15 15 14 13 14 15 15 18 17 20 22 22 21 23 25 25 25
9 8 8 8 7 8 8 8 8 9 10 10 9 16 9 10 14 13 14 11 9 13 13 14 14 14 14 14 14 14 14 15 13 13 14 15 15 14 17 20 20 19 20 23 23 23 25
9 8 8 8 7 7 8 8 8 8 8 7 9 10 9 11 14 13 11 11 10 12 13 12 13 13 14 13 12 13 14 14 12 13 13 13 14 13 17 19 19 18 20 20 21 23 23
9 8 8 8 8 8 7 8 8 8 8 6 9 14 11 9 6 7 7 9 10 10 11 11 11 12 12 12 13 12 12 13 12 12 10 11 13 13 15 17 16 15 17 19 20 20 22
9 8 8 8 8 8 8 8 8 7 7 6 8 9 6 8 8 8 8 8 8 8 10 10 10 10 9 9 11 11 11 11 11 11 11 12 10 12 13 14 14 15 16 16 16 17 18
9 8 8 8 9 8 8 7 7 7 6 7 8 7 5 5 5 8 8 8 7 6 6 7 8 8 6 6 9 10 9 11 11 11 11 12 10 12 12 14 14 14 15 16 16 16 17
9 9 9 9 8 8 8 7 5 4 5 5 4 3 4 4 6 7 7 4 5 5 6 6 6 5 4 5 5 4 8 7 7 10 10 9 10 10 11 13 14 14 15 15 17 17 17
9 9 9 9 8 8 7 5 4 3 4 4 3 3 4 8 7 6 6 7 6 7 6 6 6 6 7 6 7 7 7 8 9 10 11 10 8 9 11 12 10 14 16 17 17 18 19
10 10 9 9 9 9 8 5 4 4 4 4 4 3 3 5 5 6 5 6 6 5 6 7 7 7 7 7 6 6 9 9 10 12 10 10 8 7 8 10 12 13 14 16 17 18 18
10 10 9 9 10 9 8 6 4 4 4 4 4 4 3 4 7 4 4 6 5 6 7 8 7 6 6 5 5 6 7 8 8 10 12 9 9 7 9 7 8 12 7 6 13 16 17
10 10 10 10 10 10 9 8 6 5 5 4 4 4 4 5 7 6 5 4 4 4 4 6 7 6 5 4 5 7 7 5 6 6 7 8 7 6 7 8 9 11 7 5 9 15 15
10 10 10 10 10 10 10 9 8 5 5 5 4 4 4 4 6 6 5 5 4 4 4 4 7 6 4 5 5 5 5 5 5 5 6 7 6 6 6 6 6 6 4 7 11 9 8
10 10 10 10 10 10 10 10 8 6 6 6 4 5 5 4 6 5 5 5 4 4 4 5 6 6 4 4 4 4 5 5 5 6 3 5 5 5 5 7 5 3 3 6 7 7 7